Dewpoint
9 8 8 8 8 8 7 6 4 1 0 2 3 2 2 2 4 5 6 6 5 5 4 3 3 2 3 3 3 4 4 5 6 5 6 5 6 7 7 7 7 7 6
8 9 8 8 8 8 8 7 7 4 2 0 1 1 1 3 3 5 6 5 5 5 3 4 3 4 4 4 5 4 5 4 5 6 5 6 7 7 7 8 8 7 7
9 9 9 8 8 8 8 8 8 6 4 3 2 2 2 3 3 5 5 5 6 6 6 5 5 5 5 5 5 5 6 6 6 6 7 7 8 8 8 7 7 7 6
7 9 9 9 9 8 8 8 8 8 7 5 4 3 2 3 5 5 6 7 6 6 5 6 6 6 5 6 7 8 7 7 7 8 8 8 7 7 6 6 5 5 4
7 7 8 9 9 9 9 8 9 8 8 7 7 6 3 3 3 6 6 6 6 6 6 6 7 7 7 8 8 7 7 8 9 8 8 7 5 5 4 4 3 3 2
8 8 8 8 9 10 9 9 9 9 9 9 8 7 6 4 4 4 4 4 5 7 8 7 8 7 8 8 8 8 9 9 8 7 5 4 3 2 1 1 1 0 0
9 8 8 9 9 8 8 9 9 9 9 9 8 8 8 8 7 7 7 7 7 8 8 8 8 8 8 8 8 8 7 7 6 5 4 2 1 -0 -0 -1 -1 -1 -1
9 9 8 9 10 9 9 8 8 8 8 9 8 8 8 8 9 9 9 9 9 9 8 9 8 8 8 8 5 5 5 4 3 1 1 -0 -1 -1 -1 -2 -3 -5 -8
9 9 9 8 9 10 10 10 10 9 9 9 9 8 9 9 9 9 9 9 9 9 9 8 8 6 4 3 3 2 1 0 -0 -1 -1 -2 -3 -5 -7 -11 -12 -11 -9
10 9 9 9 9 9 10 10 10 10 10 10 10 9 8 8 9 9 9 9 9 9 8 8 4 3 1 -0 -0 -0 -1 -2 -2 -3 -6 -9 -11 -8 -8 -10 -12 -12 -12
10 10 10 9 9 9 9 10 10 10 10 10 10 10 9 9 9 9 9 8 8 8 4 1 -0 -1 -1 -1 -2 -2 -2 -3 -5 -6 -7 -7 -9 -11 -11 -11 -11 -11 -11
9 10 10 10 10 9 9 9 10 10 10 10 10 9 8 8 8 7 8 8 6 4 1 -1 -3 -2 -2 -3 -2 -3 -4 -5 -6 -7 -9 -11 -11 -11 -11 -11 -12 -12 -12
8 8 8 9 9 9 9 9 9 9 9 9 8 7 6 3 3 1 1 1 -0 -0 -2 -4 -4 -4 -4 -4 -5 -6 -6 -7 -8 -11 -12 -13 -14 -14 -15 -16 -17 -19 -19
7 7 6 6 6 7 7 8 8 8 5 5 2 1 -1 -3 -4 -4 -3 -3 -4 -4 -4 -4 -5 -5 -6 -7 -8 -9 -11 -12 -12 -12 -13 -15 -18 -21 -24 -24 -24 -25 -24
5 4 3 3 2 2 2 2 3 2 1 0 -2 -5 -5 -5 -5 -5 -5 -4 -4 -5 -6 -6 -8 -8 -8 -9 -10 -11 -12 -13 -15 -17 -18 -21 -23 -23 -24 -23 -22 -21 -21
2 2 1 -1 -2 -3 -3 -5 -3 -3 -3 -4 -4 -4 -5 -5 -5 -4 -5 -6 -6 -6 -7 -8 -9 -9 -10 -12 -13 -14 -15 -17 -18 -19 -20 -21 -21 -22 -23 -23 -22 -21 -21
1 1 0 -1 -3 -4 -5 -6 -7 -6 -6 -5 -5 -5 -6 -7 -6 -7 -7 -8 -9 -9 -8 -10 -11 -12 -13 -14 -16 -17 -18 -20 -20 -21 -23 -21 -21 -21 -23 -22 -22 -22 -22
-0 -1 -2 -3 -3 -4 -6 -7 -7 -7 -7 -8 -7 -7 -7 -8 -8 -8 -9 -8 -9 -10 -12 -13 -15 -17 -19 -20 -21 -22 -23 -24 -24 -23 -23 -22 -23 -24 -23 -22 -22 -22 -21
-3 -3 -4 -5 -5 -6 -6 -6 -6 -7 -8 -8 -9 -9 -10 -9 -10 -10 -11 -12 -16 -19 -20 -21 -21 -22 -23 -24 -24 -25 -25 -24 -23 -23 -24 -24 -23 -23 -23 -23 -22 -22 -22
-5 -6 -6 -6 -7 -7 -7 -7 -8 -9 -10 -11 -11 -11 -11 -11 -13 -18 -24 -25 -24 -23 -22 -23 -25 -27 -27 -26 -27 -27 -26 -26 -25 -25 -25 -25 -24 -24 -23 -23 -23 -22 -22
-6 -7 -7 -7 -8 -8 -8 -9 -10 -11 -11 -12 -13 -15 -20 -26 -27 -27 -27 -27 -28 -28 -29 -29 -28 -28 -28 -28 -27 -27 -26 -26 -27 -26 -25 -24 -23 -23 -22 -22 -22 -22 -21
-8 -8 -9 -9 -10 -10 -11 -11 -12 -12 -13 -14 -15 -19 -23 -26 -27 -28 -29 -30 -29 -28 -28 -29 -29 -28 -28 -27 -27 -27 -27 -27 -26 -25 -23 -23 -22 -22 -21 -21 -21 -21 -20
-9 -9 -9 -10 -10 -11 -12 -14 -17 -19 -20 -21 -22 -22 -25 -27 -27 -28 -29 -29 -29 -28 -28 -27 -27 -27 -27 -28 -27 -27 -27 -26 -25 -23 -23 -22 -22 -21 -21 -20 -20 -20 -20
-9 -10 -11 -13 -15 -16 -18 -19 -20 -21 -22 -22 -23 -24 -26 -27 -28 -29 -28 -28 -28 -28 -28 -28 -28 -29 -29 -28 -28 -27 -26 -24 -23 -23 -22 -22 -21 -20 -20 -19 -19 -19 -19
-22 -22 -22 -21 -22 -22 -22 -21 -21 -22 -23 -24 -24 -24 -24 -25 -27 -28 -27 -28 -28 -28 -28 -28 -28 -29 -29 -28 -28 -26 -24 -23 -23 -23 -22 -21 -21 -20 -19 -19 -19 -19 -19
-26 -25 -24 -23 -23 -23 -23 -23 -23 -23 -24 -25 -26 -26 -26 -25 -27 -27 -27 -28 -28 -27 -28 -28 -28 -28 -28 -28 -27 -25 -24 -23 -23 -22 -22 -21 -20 -19 -19 -19 -19 -19 -19
Wind_Speed
39 38 37 37 38 39 39 39 42 42 42 48 47 44 40 37 39 35 33 34 33 32 34 32 30 31 30 30 29 31 33 34 38 41 40 39 40 40 35 31 32 31 35
38 39 39 37 36 39 41 41 39 45 45 45 48 46 45 43 40 36 35 35 36 37 37 33 33 32 33 33 33 34 36 36 39 42 43 43 43 43 36 35 35 37 38
37 39 41 40 39 39 39 40 38 42 46 44 45 45 46 43 43 41 39 38 38 37 36 36 35 34 36 38 39 38 38 39 41 43 44 45 48 41 38 36 37 38 40
35 37 40 44 42 40 39 40 39 39 43 45 49 48 52 50 46 46 40 37 39 40 39 38 38 38 40 39 39 39 40 42 42 44 42 43 40 36 34 33 34 34 33
33 36 37 39 41 42 41 40 41 41 41 42 44 48 55 57 54 51 46 42 42 44 45 41 39 40 39 40 41 42 43 44 41 45 38 34 31 28 29 27 28 29 29
32 34 34 35 37 40 41 41 41 40 39 38 40 43 50 53 56 57 57 56 50 45 39 38 40 42 42 41 44 44 46 41 34 29 27 27 23 21 19 17 16 16 18
34 34 36 36 36 36 40 43 44 41 39 38 38 39 40 42 45 48 47 47 46 42 41 41 41 42 44 44 44 45 33 29 27 23 21 17 12 11 10 10 12 13 16
35 36 38 37 36 35 36 38 41 44 45 44 41 39 39 40 40 42 42 41 42 42 43 44 43 40 42 40 25 20 16 11 7 6 6 7 7 8 9 11 14 15 15
37 37 39 41 39 36 36 36 36 37 38 41 45 43 42 43 44 43 43 44 44 44 41 38 37 28 21 19 15 11 7 9 8 6 4 3 3 6 8 10 13 17 19
38 39 39 39 42 41 39 36 34 35 39 40 42 45 45 44 46 44 44 42 39 35 32 32 24 22 21 18 11 11 11 8 4 4 7 4 3 5 9 11 13 14 15
32 33 38 38 38 37 37 39 40 41 41 40 38 39 42 43 42 40 38 37 36 33 25 22 20 20 19 18 13 10 8 7 5 3 2 6 8 8 8 10 12 15 17
13 31 36 37 39 39 36 39 40 39 39 39 37 35 31 31 33 37 40 41 33 30 27 24 21 18 14 12 8 6 4 3 2 3 3 5 7 8 11 13 16 17 18
3 10 19 25 29 32 37 40 38 36 37 39 38 36 30 24 25 19 16 22 26 29 26 21 19 11 10 9 8 5 5 5 4 1 3 6 9 13 16 17 17 18 19
4 4 7 11 18 23 25 27 30 32 32 36 29 30 28 27 26 23 31 30 23 25 22 22 15 13 9 10 8 7 5 4 4 4 6 10 12 13 16 18 19 20 19
4 6 8 10 14 16 18 19 23 24 25 29 31 31 35 36 32 28 18 23 23 18 17 17 15 12 10 8 6 4 4 5 5 6 8 10 11 13 13 14 15 16 17
15 10 6 10 18 22 25 27 19 18 20 25 33 32 29 30 23 23 21 14 15 13 13 12 12 10 8 6 4 2 3 5 7 7 8 9 10 11 13 14 14 15 18
17 15 13 13 17 22 28 35 40 37 32 30 30 30 28 26 22 19 18 17 14 10 11 10 9 8 8 5 3 2 3 5 6 7 7 8 10 10 12 13 14 16 18
17 19 21 24 26 29 33 37 38 36 36 33 27 26 23 21 21 19 16 12 13 11 10 10 9 6 4 2 1 1 2 4 5 6 7 8 10 10 11 13 15 17 18
21 23 25 27 29 29 30 31 31 31 31 31 24 21 19 16 16 15 12 10 11 12 10 9 7 5 3 2 1 2 4 5 6 7 8 9 9 11 12 13 14 16 18
26 28 27 28 29 27 27 29 28 27 27 25 21 18 14 10 11 12 12 11 10 10 8 6 5 4 1 1 2 4 4 4 5 6 7 9 10 12 13 15 15 18 19
25 25 24 24 24 23 22 23 23 23 22 20 18 15 13 9 12 12 11 10 9 8 6 4 3 1 1 2 3 3 4 5 7 8 8 9 11 13 14 15 16 17 19
25 25 24 24 23 22 21 20 19 19 19 17 15 12 9 11 12 11 10 8 7 6 5 3 2 2 3 3 4 6 7 7 7 6 8 10 12 13 14 16 17 18 20
19 20 20 20 19 18 18 17 16 15 14 13 13 11 10 10 10 9 8 7 6 5 4 3 3 5 5 6 6 6 6 6 6 7 10 12 13 14 16 17 19 20 20
15 15 15 16 16 15 15 15 14 13 13 12 11 9 9 9 8 7 7 6 5 4 5 5 6 5 6 5 6 6 6 5 6 9 11 13 15 16 17 18 19 20 22
14 15 15 16 15 15 14 13 11 10 10 10 9 7 7 5 4 6 6 3 4 4 5 5 6 7 7 7 6 5 5 6 8 11 13 15 16 17 18 19 21 22 23
12 13 14 14 14 13 12 11 11 8 7 6 5 4 4 2 2 4 3 3 4 5 6 7 8 8 8 7 7 7 8 8 10 12 14 16 18 19 20 21 21 23 24
Wind_Direction
200 206 207 208 214 216 217 215 215 212 207 204 205 211 216 222 222 223 226 231 234 235 241 247 250 252 256 257 263 267 268 271 269 277 277 283 279 288 281 275 269 272 267
205 204 211 214 214 216 218 218 223 222 218 215 212 216 220 221 223 227 233 238 241 243 247 250 255 256 256 260 263 268 269 276 275 275 278 283 279 286 282 277 281 268 267
204 207 210 213 218 217 217 217 219 224 226 224 224 223 222 225 227 232 238 240 244 249 251 252 255 256 261 265 271 272 275 277 278 278 281 286 283 285 279 278 282 272 266
211 209 209 213 215 219 219 219 221 219 224 228 230 229 228 227 229 232 235 241 247 252 257 256 259 261 266 272 274 275 277 280 280 277 283 281 278 274 271 273 270 267 260
218 217 218 214 216 218 222 224 224 226 226 226 228 228 229 230 234 233 240 246 251 257 261 257 261 263 265 265 266 271 271 270 268 275 274 273 276 274 271 268 268 259 253
224 226 223 223 218 217 220 223 225 227 228 229 231 230 231 234 236 236 240 247 252 256 250 252 256 261 261 261 265 266 264 258 264 256 267 270 273 273 269 268 259 262 265
222 228 228 226 226 225 224 223 225 227 229 231 232 236 237 236 239 240 240 244 247 248 251 253 253 256 259 260 259 257 258 265 265 268 266 267 259 251 252 260 258 263 271
225 225 227 228 227 225 226 225 226 227 229 231 233 234 236 238 237 236 235 235 239 244 250 248 253 256 258 262 250 247 243 243 247 238 223 215 225 242 255 272 286 294 299
229 230 224 222 225 227 227 228 227 227 230 232 231 234 236 237 238 236 236 239 243 240 239 244 249 248 233 230 225 214 186 149 153 164 192 247 306 337 325 296 283 286 292
236 236 224 223 221 224 226 226 225 223 228 231 231 233 236 238 240 240 237 234 230 234 238 240 225 211 189 168 172 151 154 120 125 59 24 18 304 293 288 295 302 310 316
228 224 227 223 219 219 222 223 221 222 223 223 225 223 226 226 228 234 239 237 235 231 211 184 173 167 169 160 149 136 123 113 63 55 281 291 282 278 293 298 302 306 306
237 210 209 211 217 212 215 220 221 225 225 224 224 217 210 215 222 230 235 235 224 208 180 165 151 156 147 123 112 80 82 59 9 339 309 274 281 291 289 289 289 289 291
321 203 184 191 199 202 207 211 213 215 219 216 209 204 196 194 197 188 181 178 166 160 143 132 123 110 102 102 91 71 39 28 28 345 299 305 308 306 302 298 297 297 296
41 150 181 177 172 176 182 187 197 200 192 185 173 171 154 138 128 128 141 136 122 119 122 126 120 112 102 77 67 59 49 24 355 344 328 322 318 314 319 320 319 318 319
78 109 120 143 149 152 154 161 170 172 182 167 151 136 131 126 124 121 113 114 119 117 118 106 119 114 94 88 74 48 18 357 342 332 318 322 327 326 329 332 334 332 335
53 46 64 115 117 112 116 108 115 125 136 128 121 123 115 114 122 126 124 114 112 115 121 134 119 115 116 117 115 94 358 341 344 340 338 335 337 340 337 337 337 339 338
88 98 110 114 108 103 108 110 108 108 114 115 120 124 126 124 120 117 117 127 126 132 120 121 119 122 120 118 94 27 360 352 339 333 338 339 341 338 339 343 341 337 336
111 116 118 122 122 124 123 121 122 119 113 109 113 117 122 126 129 129 130 134 133 126 121 127 123 114 109 86 39 3 346 340 345 343 341 338 336 341 341 342 339 338 340
115 115 116 117 117 121 122 120 119 120 120 120 118 120 124 130 129 123 130 132 124 120 115 109 101 97 82 53 0 7 9 350 333 326 333 339 346 345 338 337 338 338 339
121 123 125 126 127 127 124 121 121 121 121 118 124 122 130 138 129 123 118 112 116 110 110 107 97 76 58 328 1 355 343 324 324 337 346 351 351 347 346 342 339 337 336
125 124 122 123 122 122 122 121 123 124 125 124 118 114 113 122 113 111 110 111 104 97 91 94 113 105 2 357 352 352 347 339 350 358 358 356 354 349 345 340 337 336 331
125 124 124 121 120 121 122 125 129 130 127 124 117 114 114 111 105 103 103 105 108 111 109 91 73 57 36 22 2 355 347 353 2 357 353 348 347 344 339 339 337 335 332
117 118 119 120 120 123 123 122 123 122 121 119 122 126 121 109 107 106 101 92 83 76 76 69 32 23 10 357 351 344 336 342 346 342 341 339 339 339 337 334 334 334 332
118 121 124 124 125 123 121 119 118 116 116 117 116 112 108 104 100 102 102 96 84 63 26 3 2 355 352 333 323 320 317 324 320 324 330 335 338 333 331 331 330 327 325
117 120 120 122 122 121 122 120 121 122 120 119 121 117 108 93 86 82 87 80 46 21 8 340 333 333 322 312 311 312 288 298 310 322 327 328 326 328 328 328 328 328 329
111 114 116 119 118 118 120 124 125 123 115 107 99 93 88 86 31 44 51 25 6 350 335 329 321 321 316 311 313 301 297 303 313 317 318 321 327 328 326 324 325 323 324
Height
1417 1424 1429 1433 1438 1444 1449 1454 1459 1463 1468 1473 1478 1483 1488 1493 1497 1501 1504 1507 1509 1511 1514 1517 1519 1522 1522 1523 1523 1524 1524 1522 1519 1520 1519 1520 1518 1517 1516 1515 1514 1513 1513
1414 1418 1425 1429 1432 1437 1442 1448 1454 1458 1464 1469 1475 1479 1483 1487 1491 1495 1498 1501 1503 1506 1508 1511 1512 1514 1515 1515 1516 1516 1515 1514 1512 1510 1510 1510 1509 1507 1507 1506 1505 1504 1503
1409 1414 1418 1423 1428 1431 1436 1442 1447 1452 1457 1463 1468 1472 1476 1481 1485 1489 1492 1495 1497 1500 1501 1503 1505 1507 1507 1506 1507 1506 1505 1505 1504 1502 1501 1500 1497 1497 1496 1496 1495 1494 1492
1405 1409 1412 1416 1420 1427 1432 1436 1440 1444 1449 1454 1459 1465 1470 1474 1478 1482 1484 1487 1490 1492 1494 1496 1497 1497 1497 1497 1497 1496 1496 1495 1495 1493 1491 1490 1488 1488 1487 1488 1487 1486 1486
1399 1404 1406 1412 1417 1421 1424 1429 1434 1438 1442 1447 1452 1455 1461 1466 1469 1473 1476 1479 1482 1484 1486 1488 1487 1486 1487 1487 1487 1486 1486 1485 1484 1483 1483 1480 1480 1480 1480 1477 1482 1479 1480
1393 1397 1402 1406 1410 1414 1419 1422 1427 1431 1435 1441 1443 1447 1451 1454 1458 1464 1468 1471 1473 1475 1476 1478 1477 1477 1477 1476 1476 1474 1473 1471 1471 1472 1473 1474 1473 1474 1475 1473 1473 1476 1477
1387 1390 1394 1399 1403 1407 1412 1418 1421 1425 1430 1432 1436 1440 1443 1446 1450 1454 1459 1463 1465 1467 1468 1469 1469 1468 1467 1467 1464 1462 1461 1459 1462 1465 1467 1469 1469 1470 1471 1471 1472 1471 1469
1380 1384 1387 1390 1395 1401 1406 1410 1415 1419 1423 1427 1430 1434 1437 1438 1442 1446 1451 1454 1456 1457 1458 1458 1459 1458 1458 1456 1456 1449 1452 1453 1455 1460 1464 1466 1466 1469 1467 1468 1469 1468 1466
1376 1378 1382 1385 1389 1394 1398 1402 1408 1413 1418 1421 1424 1427 1430 1432 1435 1439 1443 1445 1447 1447 1447 1447 1448 1447 1449 1449 1446 1449 1449 1447 1452 1460 1463 1465 1465 1465 1465 1466 1466 1464 1461
1374 1371 1377 1380 1384 1388 1395 1399 1403 1405 1408 1411 1415 1419 1422 1425 1427 1430 1432 1434 1435 1437 1438 1438 1439 1439 1442 1441 1446 1442 1446 1448 1454 1457 1462 1465 1465 1463 1461 1461 1461 1460 1458
1367 1371 1370 1374 1378 1382 1387 1392 1395 1398 1400 1403 1406 1409 1413 1415 1417 1421 1424 1425 1426 1427 1428 1431 1434 1437 1439 1435 1441 1442 1443 1448 1454 1457 1461 1463 1464 1461 1458 1458 1457 1456 1454
1363 1363 1364 1368 1374 1372 1377 1385 1390 1392 1395 1399 1401 1403 1405 1407 1409 1412 1414 1415 1415 1416 1419 1425 1434 1435 1434 1433 1438 1443 1448 1449 1452 1454 1457 1461 1462 1458 1456 1455 1454 1452 1451
1364 1364 1362 1364 1369 1372 1368 1371 1380 1386 1389 1390 1393 1394 1398 1402 1402 1405 1409 1410 1411 1408 1418 1428 1429 1437 1436 1435 1438 1442 1444 1448 1450 1453 1455 1456 1454 1453 1452 1451 1449 1446 1444
1365 1367 1368 1369 1369 1367 1370 1371 1374 1376 1382 1377 1386 1388 1391 1398 1407 1418 1405 1407 1412 1417 1424 1419 1429 1432 1439 1434 1440 1442 1446 1447 1448 1449 1450 1451 1450 1449 1446 1444 1442 1440 1437
1370 1371 1370 1371 1371 1370 1371 1373 1372 1376 1381 1374 1378 1396 1387 1395 1404 1414 1428 1418 1417 1427 1428 1426 1432 1433 1433 1436 1439 1443 1446 1447 1447 1446 1447 1445 1443 1443 1442 1441 1439 1436 1433
1373 1375 1377 1379 1378 1374 1373 1377 1382 1384 1388 1393 1384 1394 1407 1407 1419 1413 1412 1430 1428 1428 1428 1438 1433 1432 1434 1436 1438 1441 1444 1445 1446 1446 1443 1442 1441 1440 1440 1439 1436 1434 1430
1374 1375 1379 1383 1385 1388 1387 1385 1388 1392 1399 1402 1403 1403 1412 1414 1416 1424 1423 1426 1427 1433 1433 1437 1435 1437 1438 1439 1437 1439 1441 1441 1442 1442 1441 1440 1439 1439 1437 1434 1433 1432 1429
1384 1383 1385 1386 1389 1392 1393 1391 1390 1396 1400 1408 1415 1414 1416 1419 1419 1420 1424 1429 1432 1430 1434 1436 1435 1436 1438 1439 1440 1438 1438 1438 1439 1441 1439 1437 1436 1436 1434 1432 1431 1428 1424
1391 1392 1394 1395 1395 1405 1403 1399 1401 1405 1408 1408 1418 1422 1421 1425 1426 1424 1427 1428 1433 1434 1434 1436 1435 1437 1438 1440 1442 1438 1435 1437 1438 1438 1437 1436 1434 1433 1433 1430 1428 1427 1423
1396 1398 1401 1401 1403 1407 1408 1406 1408 1411 1415 1415 1422 1424 1426 1428 1429 1431 1431 1430 1433 1434 1435 1436 1436 1437 1440 1443 1440 1437 1435 1436 1436 1435 1435 1434 1433 1432 1430 1428 1426 1423 1421
1403 1404 1407 1410 1411 1413 1415 1414 1415 1417 1420 1422 1423 1425 1425 1432 1431 1431 1433 1436 1435 1434 1435 1437 1439 1440 1441 1440 1438 1436 1434 1433 1432 1433 1433 1433 1430 1429 1427 1426 1424 1420 1419
1409 1410 1412 1414 1416 1418 1419 1421 1423 1425 1424 1425 1424 1426 1432 1433 1432 1433 1434 1438 1439 1439 1439 1437 1437 1439 1438 1436 1435 1434 1433 1431 1430 1431 1431 1432 1428 1427 1425 1423 1421 1417 1416
1416 1416 1417 1418 1419 1422 1423 1424 1426 1426 1426 1427 1429 1432 1434 1432 1433 1435 1436 1438 1438 1439 1439 1438 1436 1435 1434 1433 1432 1431 1431 1430 1429 1429 1429 1429 1426 1423 1422 1420 1417 1414 1412
1421 1421 1422 1423 1424 1425 1426 1426 1428 1429 1430 1432 1433 1434 1435 1435 1435 1437 1437 1436 1438 1435 1436 1437 1435 1434 1431 1430 1429 1429 1430 1428 1428 1427 1426 1425 1423 1421 1419 1416 1413 1411 1408
1424 1424 1425 1426 1425 1428 1430 1430 1433 1434 1434 1435 1437 1436 1436 1437 1438 1436 1437 1437 1435 1435 1435 1435 1433 1430 1430 1429 1428 1427 1429 1424 1426 1424 1422 1421 1420 1417 1414 1411 1409 1406 1404
1427 1428 1428 1429 1429 1430 1433 1434 1436 1438 1437 1436 1435 1436 1436 1437 1437 1437 1436 1436 1435 1434 1433 1430 1430 1428 1428 1426 1425 1424 1424 1423 1422 1420 1419 1417 1415 1413 1410 1407 1405 1402 1399